Regional Weather Roundup
Issued by NWS

Home | Current Version | Previous Version | Text Only | Print | Product List | Glossary Off
Versions: 1 2 3 4 5 6 7 8 9 10 11 12 13 14 15 16 17 18 19 20 21 22 23 24 25 26 27 28 29 30 31 32 33 34 35 36 37 38 39 40 41 42 43 44 45 46 47 48 49 50

000
ASUS43 KFSD 252310
RWRSD

WEATHER ROUNDUP FOR SOUTH DAKOTA
NATIONAL WEATHER SERVICE SIOUX FALLS SD
600 PM CDT MON JUL 25 2016

NOTE: "FAIR" INDICATES FEW OR NO CLOUDS BELOW 12,000 FEET WITH NO
SIGNIFICANT WEATHER AND/OR OBSTRUCTIONS TO VISIBILITY.


SDZ001>005-009-010-012>017-260000-
NORTHWEST AND NORTH CENTRAL SOUTH DAKOTA

CITY           SKY/WX    TMP DP  RH WIND       PRES   REMARKS
BUFFALO          N/A     95  42  16 SE5       29.89F
FAITH            N/A     96  46  18 S10       29.95F
MOBRIDGE       SUNNY     99  48  17 S15G25    29.90F HX  95
$$

SDZ012>016-024>037-041>051-057-063-072>074-260000-
SOUTHWEST AND SOUTH CENTRAL SOUTH DAKOTA

CITY           SKY/WX    TMP DP  RH WIND       PRES   REMARKS
RAPID CTY ARPT CLOUDY    84  57  39 S17       29.99F
PIERRE         SUNNY     96  45  17 S15G28    29.94F
CUSTER         CLOUDY    75  46  35 N15G21    30.19R THUNDER
ELLSWORTH AFB  PTSUNNY   85  57  39 S10       30.00S
PHILIP         CLOUDY    94  58  29 S16G24    29.95F
PINE RIDGE     LGT RAIN  91  58  32 S17       30.03F
WINNER         FAIR      94  46  19 SE18      30.01F
$$

SDZ004>011-016>023-039-040-260000-
NORTHEAST SOUTH DAKOTA

CITY           SKY/WX    TMP DP  RH WIND       PRES   REMARKS
ABERDEEN       SUNNY     92  57  30 S14       29.95F
WATERTOWN      SUNNY     87  61  41 S16       30.03F
BROOKINGS      SUNNY     83  64  52 S12       30.05F
SISSETON         N/A     88  60  38 SW16      29.96F
$$

SDZ017-020-022-023-036>040-048>070-260000-
SOUTHEAST SOUTH DAKOTA

CITY           SKY/WX    TMP DP  RH WIND       PRES   REMARKS
SIOUX FALLS    SUNNY     84  60  44 S8        30.05F
HURON          SUNNY     90  55  30 S14G24    29.99F
CHAMBERLAIN    SUNNY     92  54  27 S14G22    30.00F
MITCHELL       SUNNY     90  56  31 S13       30.02F
YANKTON        SUNNY     88  57  35 SE10      30.02F
$$

ABBREVIATIONS USED IN REMARKS
   TC - TEMPERATURE IN CELSIUS
  WCI - WIND CHILL INDEX
   HX - HEAT INDEX
  VSB - VISIBILITY





USA.gov is the U.S. government's official web portal to all federal, state and local government web resources and services.